Time,TemperatureF,DewpointF,PressureIn,WindDirection,WindDirectionDegrees,WindSpeedMPH,WindSpeedGustMPH,Humidity,HourlyPrecipIn,Conditions,Clouds,dailyrainin,SoftwareType,DateUTC
2013-03-13 00:03:00,45.3,44.8,30.12,NNE,22,0.0,-999.0,98,-99.99,,,0.00,Acu-Link.com,2013-03-13 05:03:00,
2013-03-13 00:18:00,44.6,44.1,30.13,East,90,0.0,-999.0,98,-99.99,,,0.00,Acu-Link.com,2013-03-13 05:18:00,
2013-03-13 00:33:00,44.4,43.9,30.12,NE,45,0.0,-999.0,98,-99.99,,,0.00,Acu-Link.com,2013-03-13 05:33:00,
2013-03-13 00:48:00,43.9,43.4,30.13,SSE,157,0.0,-999.0,98,-99.99,,,0.00,Acu-Link.com,2013-03-13 05:48:00,
2013-03-13 01:03:00,43.9,43.4,30.13,NE,45,0.0,-999.0,98,-99.99,,,0.00,Acu-Link.com,2013-03-13 06:03:00,
2013-03-13 01:19:00,43.7,43.2,30.13,East,90,0.0,-999.0,98,-99.99,,,0.00,Acu-Link.com,2013-03-13 06:19:00,
2013-03-13 01:34:00,43.2,42.7,30.13,NNW,337,0.0,-999.0,98,-99.99,,,0.00,Acu-Link.com,2013-03-13 06:34:00,
2013-03-13 01:49:00,42.8,42.3,30.13,NNW,337,0.0,-999.0,98,-99.99,,,0.00,Acu-Link.com,2013-03-13 06:49:00,
2013-03-13 02:04:00,42.4,41.9,30.14,South,180,0.0,-999.0,98,-99.99,,,0.00,Acu-Link.com,2013-03-13 07:04:00,
2013-03-13 02:19:00,41.9,41.4,30.14,East,90,0.0,-999.0,98,-99.99,,,0.00,Acu-Link.com,2013-03-13 07:19:00,
2013-03-13 02:34:00,41.9,41.4,30.14,South,180,0.0,-999.0,98,-99.99,,,0.00,Acu-Link.com,2013-03-13 07:34:00,
2013-03-13 02:49:00,41.4,40.9,30.14,South,180,0.0,-999.0,98,-99.99,,,0.00,Acu-Link.com,2013-03-13 07:49:00,
2013-03-13 03:04:00,41.5,41.0,30.14,West,270,0.0,-999.0,98,-99.99,,,0.00,Acu-Link.com,2013-03-13 08:04:00,
2013-03-13 03:19:00,41.2,40.7,30.14,SSW,202,0.0,-999.0,98,-99.99,,,0.00,Acu-Link.com,2013-03-13 08:19:00,
2013-03-13 03:35:00,41.0,40.5,30.15,South,180,0.0,-999.0,98,-99.99,,,0.00,Acu-Link.com,2013-03-13 08:35:00,
2013-03-13 03:50:00,40.6,40.1,30.15,NE,45,0.0,-999.0,98,-99.99,,,0.00,Acu-Link.com,2013-03-13 08:50:00,
2013-03-13 04:05:00,40.6,40.1,30.15,East,90,0.0,-999.0,98,-99.99,,,0.00,Acu-Link.com,2013-03-13 09:05:00,
2013-03-13 04:20:00,39.9,39.4,30.15,NNE,22,0.0,-999.0,98,-99.99,,,0.00,Acu-Link.com,2013-03-13 09:20:00,
2013-03-13 04:35:00,40.1,39.6,30.15,NE,45,0.0,-999.0,98,-99.99,,,0.00,Acu-Link.com,2013-03-13 09:35:00,
2013-03-13 04:50:00,40.3,39.8,30.15,SW,225,0.0,-999.0,98,-99.99,,,0.00,Acu-Link.com,2013-03-13 09:50:00,
2013-03-13 05:05:00,39.7,39.2,30.15,NW,315,0.0,-999.0,98,-99.99,,,0.00,Acu-Link.com,2013-03-13 10:05:00,
2013-03-13 05:21:00,40.1,39.6,30.17,NNE,22,0.0,-999.0,98,-99.99,,,0.00,Acu-Link.com,2013-03-13 10:21:00,
2013-03-13 06:21:00,39.7,39.2,30.19,NNW,337,0.0,-999.0,98,-99.99,,,0.00,Acu-Link.com,2013-03-13 11:21:00,
2013-03-13 06:36:00,39.6,39.1,30.19,ENE,67,0.0,-999.0,98,-99.99,,,0.00,Acu-Link.com,2013-03-13 11:36:00,
2013-03-13 06:51:00,39.6,39.1,30.20,NNE,22,0.0,-999.0,98,-99.99,,,0.00,Acu-Link.com,2013-03-13 11:51:00,
2013-03-13 07:21:00,42.3,41.8,30.22,East,90,1.7,-999.0,98,-99.99,,,0.00,Acu-Link.com,2013-03-13 12:21:00,
2013-03-13 07:37:00,43.7,43.2,30.23,ENE,67,2.7,-999.0,98,-99.99,,,0.00,Acu-Link.com,2013-03-13 12:37:00,
2013-03-13 08:07:00,45.1,42.6,30.25,NE,45,1.7,-999.0,91,-99.99,,,0.00,Acu-Link.com,2013-03-13 13:07:00,
2013-03-13 08:22:00,47.1,43.1,30.26,NNE,22,4.2,-999.0,86,-99.99,,,0.00,Acu-Link.com,2013-03-13 13:22:00,
2013-03-13 08:37:00,48.9,43.0,30.26,ESE,112,3.7,-999.0,80,-99.99,,,0.00,Acu-Link.com,2013-03-13 13:37:00,
2013-03-13 08:52:00,51.6,43.6,30.27,NNE,22,5.8,-999.0,74,-99.99,,,0.00,Acu-Link.com,2013-03-13 13:52:00,
2013-03-13 09:08:00,53.4,44.2,30.28,East,90,4.2,-999.0,71,-99.99,,,0.00,Acu-Link.com,2013-03-13 14:08:00,
2013-03-13 09:23:00,55.4,44.2,30.28,NE,45,6.3,-999.0,66,-99.99,,,0.00,Acu-Link.com,2013-03-13 14:23:00,
2013-03-13 09:38:00,57.4,43.2,30.29,NNE,22,4.7,-999.0,59,-99.99,,,0.00,Acu-Link.com,2013-03-13 14:38:00,
2013-03-13 09:53:00,58.6,43.0,30.29,East,90,7.8,-999.0,56,-99.99,,,0.00,Acu-Link.com,2013-03-13 14:53:00,
2013-03-13 10:08:00,60.4,43.2,30.30,NE,45,8.3,-999.0,53,-99.99,,,0.00,Acu-Link.com,2013-03-13 15:08:00,
2013-03-13 10:23:00,61.7,42.9,30.30,East,90,10.4,-999.0,50,-99.99,,,0.00,Acu-Link.com,2013-03-13 15:23:00,
2013-03-13 10:39:00,62.2,41.2,30.31,NE,45,10.4,-999.0,46,-99.99,,,0.00,Acu-Link.com,2013-03-13 15:39:00,
2013-03-13 10:54:00,63.5,41.2,30.31,North,0,6.3,-999.0,44,-99.99,,,0.00,Acu-Link.com,2013-03-13 15:54:00,
2013-03-13 11:09:00,64.4,40.8,30.31,ESE,112,5.3,-999.0,42,-99.99,,,0.00,Acu-Link.com,2013-03-13 16:09:00,
2013-03-13 11:24:00,65.5,42.4,30.31,ESE,112,2.7,-999.0,43,-99.99,,,0.00,Acu-Link.com,2013-03-13 16:24:00,
2013-03-13 11:39:00,66.0,42.2,30.31,North,0,9.9,-999.0,42,-99.99,,,0.00,Acu-Link.com,2013-03-13 16:39:00,
2013-03-13 11:54:00,65.5,41.8,30.31,NNW,337,2.7,-999.0,42,-99.99,,,0.00,Acu-Link.com,2013-03-13 16:54:00,
2013-03-13 12:09:00,65.8,42.1,30.30,North,0,6.3,-999.0,42,-99.99,,,0.00,Acu-Link.com,2013-03-13 17:09:00,
2013-03-13 12:24:00,66.9,41.1,30.30,NE,45,9.4,-999.0,39,-99.99,,,0.00,Acu-Link.com,2013-03-13 17:24:00,
2013-03-13 12:39:00,66.9,41.1,30.29,ESE,112,6.3,-999.0,39,-99.99,,,0.00,Acu-Link.com,2013-03-13 17:39:00,
2013-03-13 12:55:00,67.6,41.1,30.28,ESE,112,2.7,-999.0,38,-99.99,,,0.00,Acu-Link.com,2013-03-13 17:55:00,
2013-03-13 13:10:00,68.0,40.8,30.28,NNE,22,7.3,-999.0,37,-99.99,,,0.00,Acu-Link.com,2013-03-13 18:10:00,
2013-03-13 13:25:00,68.2,40.9,30.27,NW,315,6.8,-999.0,37,-99.99,,,0.00,Acu-Link.com,2013-03-13 18:25:00,
2013-03-13 13:40:00,69.6,40.0,30.26,SSE,157,4.2,-999.0,34,-99.99,,,0.00,Acu-Link.com,2013-03-13 18:40:00,
2013-03-13 13:55:00,70.3,42.1,30.26,NNW,337,4.7,-999.0,36,-99.99,,,0.00,Acu-Link.com,2013-03-13 18:55:00,
2013-03-13 14:10:00,70.5,40.8,30.25,NE,45,10.4,-999.0,34,-99.99,,,0.00,Acu-Link.com,2013-03-13 19:10:00,
2013-03-13 14:25:00,69.6,39.2,30.24,NNE,22,5.3,-999.0,33,-99.99,,,0.00,Acu-Link.com,2013-03-13 19:25:00,
2013-03-13 14:40:00,70.5,40.0,30.23,NNW,337,7.8,-999.0,33,-99.99,,,0.00,Acu-Link.com,2013-03-13 19:40:00,
2013-03-13 14:55:00,70.5,39.2,30.23,East,90,2.7,-999.0,32,-99.99,,,0.00,Acu-Link.com,2013-03-13 19:55:00,
2013-03-13 15:11:00,72.1,41.4,30.22,NNE,22,8.9,-999.0,33,-99.99,,,0.00,Acu-Link.com,2013-03-13 20:11:00,
2013-03-13 15:26:00,72.0,41.3,30.21,WNW,292,1.7,-999.0,33,-99.99,,,0.00,Acu-Link.com,2013-03-13 20:26:00,
2013-03-13 16:11:00,72.3,38.3,30.20,NE,45,7.3,-999.0,29,-99.99,,,0.00,Acu-Link.com,2013-03-13 21:11:00,
2013-03-13 16:26:00,72.7,38.6,30.19,NNW,337,10.9,-999.0,29,-99.99,,,0.00,Acu-Link.com,2013-03-13 21:26:00,
2013-03-13 16:41:00,72.5,37.5,30.19,NNE,22,9.4,-999.0,28,-99.99,,,0.00,Acu-Link.com,2013-03-13 21:41:00,
2013-03-13 17:11:00,72.7,36.8,30.18,NE,45,6.8,-999.0,27,-99.99,,,0.00,Acu-Link.com,2013-03-13 22:11:00,
2013-03-13 17:27:00,72.9,35.0,30.18,NNE,22,8.9,-999.0,25,-99.99,,,0.00,Acu-Link.com,2013-03-13 22:27:00,
2013-03-13 17:42:00,72.7,33.8,30.19,NNW,337,6.3,-999.0,24,-99.99,,,0.00,Acu-Link.com,2013-03-13 22:42:00,
2013-03-13 17:57:00,72.5,36.6,30.18,NNW,337,3.7,-999.0,27,-99.99,,,0.00,Acu-Link.com,2013-03-13 22:57:00,
2013-03-13 18:12:00,72.7,34.8,30.18,NW,315,3.7,-999.0,25,-99.99,,,0.00,Acu-Link.com,2013-03-13 23:12:00,
2013-03-13 18:27:00,72.7,35.8,30.18,NNW,337,5.8,-999.0,26,-99.99,,,0.00,Acu-Link.com,2013-03-13 23:27:00,
2013-03-13 18:57:00,70.2,37.3,30.19,NNW,337,4.2,-999.0,30,-99.99,,,0.00,Acu-Link.com,2013-03-13 23:57:00,
2013-03-13 19:27:00,66.4,35.6,30.19,North,0,3.7,-999.0,32,-99.99,,,0.00,Acu-Link.com,2013-03-14 00:27:00,
2013-03-13 19:43:00,64.8,35.8,30.19,NE,45,2.2,-999.0,34,-99.99,,,0.00,Acu-Link.com,2013-03-14 00:43:00,
2013-03-13 19:58:00,62.6,37.9,30.19,East,90,2.2,-999.0,40,-99.99,,,0.00,Acu-Link.com,2013-03-14 00:58:00,
2013-03-13 20:13:00,60.1,37.5,30.20,East,90,2.2,-999.0,43,-99.99,,,0.00,Acu-Link.com,2013-03-14 01:13:00,
2013-03-13 20:28:00,58.1,39.0,30.20,NE,45,0.0,-999.0,49,-99.99,,,0.00,Acu-Link.com,2013-03-14 01:28:00,
2013-03-13 20:43:00,56.7,39.8,30.20,East,90,0.0,-999.0,53,-99.99,,,0.00,Acu-Link.com,2013-03-14 01:43:00,
2013-03-13 20:58:00,55.0,38.7,30.20,East,90,0.0,-999.0,54,-99.99,,,0.00,Acu-Link.com,2013-03-14 01:58:00,
2013-03-13 21:13:00,53.6,39.6,30.21,ESE,112,0.0,-999.0,59,-99.99,,,0.00,Acu-Link.com,2013-03-14 02:13:00,
2013-03-13 21:28:00,52.2,38.7,30.22,East,90,0.0,-999.0,60,-99.99,,,0.00,Acu-Link.com,2013-03-14 02:28:00,
2013-03-13 21:43:00,51.1,39.7,30.22,ESE,112,0.0,-999.0,65,-99.99,,,0.00,Acu-Link.com,2013-03-14 02:43:00,
2013-03-13 21:59:00,50.2,39.7,30.22,East,90,0.0,-999.0,67,-99.99,,,0.00,Acu-Link.com,2013-03-14 02:59:00,
2013-03-13 22:14:00,48.7,40.1,30.23,East,90,0.0,-999.0,72,-99.99,,,0.00,Acu-Link.com,2013-03-14 03:14:00,
2013-03-13 22:29:00,48.4,39.8,30.23,ENE,67,0.0,-999.0,72,-99.99,,,0.00,Acu-Link.com,2013-03-14 03:29:00,
2013-03-13 22:44:00,48.6,42.1,30.24,SW,225,0.0,-999.0,78,-99.99,,,0.00,Acu-Link.com,2013-03-14 03:44:00,
2013-03-13 22:59:00,47.7,42.5,30.24,ESE,112,1.1,-999.0,82,-99.99,,,0.00,Acu-Link.com,2013-03-14 03:59:00,
2013-03-13 23:14:00,46.9,42.9,30.24,SW,225,1.1,-999.0,86,-99.99,,,0.00,Acu-Link.com,2013-03-14 04:14:00,
2013-03-13 23:29:00,46.6,41.7,30.23,ENE,67,0.0,-999.0,83,-99.99,,,0.00,Acu-Link.com,2013-03-14 04:29:00,
2013-03-13 23:44:00,46.8,42.5,30.23,South,180,0.0,-999.0,85,-99.99,,,0.00,Acu-Link.com,2013-03-14 04:44:00,
2013-03-13 23:59:00,46.0,42.4,30.24,West,270,2.2,-999.0,87,-99.99,,,0.00,Acu-Link.com,2013-03-14 04:59:00,